• MPC Preparation (Info)

  • MPEC 1995-M05 : 1995 LE

    The following Minor Planet Electronic Circular may be linked-to from your own Web pages, but must not otherwise be redistributed electronically.

    A form allowing access to any MPEC is at the bottom of this page.


    Read MPEC 1995-M04 Read MPEC 1995-M06


    M.P.E.C. 1995-M05                                Issued 1995 June 21, 13:28 UT
    
         The Minor Planet Electronic Circulars contain information on unusual
             minor planets and routine data on comets.  They are published
       on behalf of Commission 20 of the International Astronomical Union by the
              Minor Planet Center, Smithsonian Astrophysical Observatory,
                              Cambridge, MA 02138, U.S.A.
    
                 BMARSDEN@CFA.HARVARD.EDU or GWILLIAMS@CFA.HARVARD.EDU
    
                                        1995 LE
    
                               Revision to MPEC 1995-L06
    
    Observations:
         J95L00E  C1995 06 08.37867 21 41 35.32 -09 52 25.8          18.6 V      691
         J95L00E  C1995 06 08.38517 21 41 36.86 -09 52 13.5          18.7 V      691
         J95L00E  C1995 06 08.39141 21 41 38.36 -09 52 01.8          18.6 V      691
         J95L00E  C1995 06 08.72550 21 42 59.25 -09 41 13.9                      413
         J95L00E  C1995 06 08.72851 21 42 59.98 -09 41 08.0                      413
         J95L00E  C1995 06 13.59881 22 03 16.60 -06 58 30.0                      568
         J95L00E  C1995 06 19.73756 22 30 20.39 -03 08 48.6                      413
         J95L00E  C1995 06 19.74096 22 30 21.30 -03 08 40.6                      413
         J95L00E  C1995 06 20.72880 22 34 51.59 -02 29 28.6                      413
         J95L00E  C1995 06 20.73114 22 34 52.24 -02 29 23.0                      413
         J95L00E  C1995 06 21.03941 22 36 17.25 -02 17 27.4          18.6 V      557
         J95L00E  C1995 06 21.04515 22 36 18.84 -02 17 13.0                      557
         J95L00E  C1995 06 21.04757 22 36 19.62 -02 17 05.0          18.3 V      104
         J95L00E  C1995 06 21.05000 22 36 20.28 -02 16 58.9                      104
         J95L00E  C1995 06 21.05532 22 36 21.80 -02 16 48.0                      104
         J95L00E  C1995 06 21.05764 22 36 22.41 -02 16 42.2                      104
    
    Observer details:
    104 San Marcello Pistoiese.  Observers A. Boattini, L. Tesi.  0.40-m reflector
        + CCD.
    413 Siding Spring Observatory.  Observers D. I. Steel, R. H. McNaught,
        G. J. Garradd, A. Taylor.  Measurer R. H. McNaught.  1.0-m reflector + CCD.
    557 Ondrejov.  Observers M. Wolf, L. Sarounova, P. Pravec.  0.65-m f/3.6
        reflector + CCD.
    568 Mauna Kea.  Observer D. J. Tholen.  Measurer R. Whiteley.  2.2-m reflector
        + CCD.
    691 Steward Observatory, Kitt Peak.  Observer T. Gehrels.  Measurer R. Jedicke.
        0.91-m Spacewatch telescope.
    
    Orbital elements:
    1995 LE
    Epoch 1995 June 12.0 TT = JDT 2449880.5                 Williams
    M 347.25989              (2000.0)            P               Q
    n   0.23722969     Peri.   75.17011     +0.88732452     +0.45569666
    a   2.5843819      Node   257.67793     -0.44601818     +0.80914054
    e   0.5718809      Incl.    4.14881     -0.11714509     +0.37098807
    P   4.15           H    17.5          G   0.15
    From 25 observations 1995 June 3-21.
    
    Ephemeris:
    1995 LE                  a,e,i = 2.58, 0.57, 4                   q = 1.1064
    Date    TT    R. A. (2000) Decl.     Delta      r     Elong.  Phase     V
    1995 06 17    22 18.06   -04 54.4    0.459    1.254   110.8    49.2    18.1
    1995 06 22    22 40.71   -01 38.4    0.433    1.228   109.0    51.5    18.0
    1995 06 27    23 04.33   +01 50.6    0.412    1.203   106.9    53.9    17.9
    1995 07 02    23 28.76   +05 27.4    0.397    1.181   104.6    56.4    17.9
    1995 07 07    23 53.77   +09 05.0    0.386    1.161   102.1    58.9    17.9
    1995 07 12    00 19.08   +12 36.1    0.381    1.144    99.7    61.1    17.9
    1995 07 17    00 44.37   +15 54.0    0.380    1.130    97.5    63.1    17.9
    1995 07 22    01 09.27   +18 53.4    0.382    1.119    95.5    64.6    17.9
    1995 07 27    01 33.44   +21 30.8    0.387    1.112    94.0    65.7    18.0
    1995 08 01    01 56.59   +23 44.9    0.395    1.107    92.9    66.3    18.0
    1995 08 06    02 18.48   +25 36.3    0.404    1.107    92.2    66.3    18.1
    1995 08 11    02 38.97   +27 06.5    0.414    1.109    92.1    66.0    18.1
    1995 08 16    02 57.93   +28 17.8    0.425    1.115    92.5    65.1    18.2
    1995 08 21    03 15.28   +29 12.6    0.436    1.125    93.3    63.9    18.2
    1995 08 26    03 30.92   +29 53.2    0.447    1.137    94.6    62.4    18.2
    1995 08 31    03 44.81   +30 21.7    0.456    1.153    96.3    60.5    18.3
    1995 09 05    03 56.92   +30 39.9    0.465    1.171    98.5    58.4    18.3
    1995 09 10    04 07.23   +30 49.6    0.474    1.192   101.0    56.0    18.3
    1995 09 15    04 15.72   +30 51.9    0.481    1.215   104.0    53.4    18.3
    1995 09 20    04 22.33   +30 47.8    0.487    1.241   107.5    50.5    18.3
    1995 09 25    04 27.01   +30 38.0    0.493    1.269   111.4    47.4    18.3
    1995 09 30    04 29.75   +30 22.7    0.498    1.298   115.7    44.1    18.2
    1995 10 05    04 30.58   +30 02.1    0.504    1.328   120.4    40.5    18.2
    1995 10 10    04 29.57   +29 36.2    0.510    1.360   125.6    36.6    18.2
    1995 10 15    04 26.83   +29 04.8    0.517    1.394   131.2    32.6    18.2
    1995 10 20    04 22.50   +28 27.9    0.526    1.428   137.2    28.3    18.1
    1995 10 25    04 16.83   +27 45.5    0.538    1.462   143.5    23.9    18.1
    1995 10 30    04 10.16   +26 58.0    0.553    1.498   150.0    19.3    18.1
    1995 11 04    04 02.89   +26 06.3    0.572    1.534   156.7    14.8    18.0
    1995 11 09    03 55.40   +25 12.0    0.595    1.570   163.5    10.3    18.0
    1995 11 14    03 48.06   +24 16.7    0.623    1.607   170.1     6.1    18.0
    1995 11 19    03 41.20   +23 22.3    0.657    1.644   175.7     2.6    17.9
    1995 11 24    03 35.07   +22 30.5    0.696    1.681   174.6     3.2    18.2
    1995 11 29    03 29.88   +21 42.8    0.740    1.719   168.8     6.4    18.5
    1995 12 04    03 25.74   +21 00.4    0.790    1.756   162.8     9.5    18.8
    1995 12 09    03 22.68   +20 23.9    0.845    1.793   157.0    12.4    19.1
    1995 12 14    03 20.68   +19 53.7    0.905    1.830   151.4    14.9    19.4
    1995 12 19    03 19.69   +19 29.5    0.969    1.868   146.0    17.2    19.7
    1995 12 24    03 19.67   +19 11.2    1.038    1.904   140.8    19.1    19.9
    1995 12 29    03 20.54   +18 58.4    1.111    1.941   135.8    20.7    20.2
    1996 01 03    03 22.21   +18 50.4    1.187    1.978   131.1    22.0    20.4
    1996 01 08    03 24.62   +18 46.7    1.267    2.014   126.5    23.1    20.6
    1996 01 13    03 27.67   +18 46.7    1.350    2.050   122.1    24.0    20.8
    1996 01 18    03 31.30   +18 49.9    1.436    2.086   117.9    24.6    21.0
    
    Gareth V. Williams                                            M.P.E.C. 1995-M05
    

    Read MPEC 1995-M04 Read MPEC 1995-M06


    MPEC number:

    Enter an MPEC number in one of the following forms:

    • 1997-B01 (the full form)
    • J97B01 (the packed version of the full form)
    • B01 (the abbreviated form)